Location: Sevilla
(37.3933°N, 5.9839°W)
Time: 05:06:40
(UTC+02:00)

Vanguard 3 - Pass Details

Date: 27 June 2024
Orbit: 508 x 3231 km, 33.4° (Epoch: 15 July)

Event Time Altitude Azimuth Distance (km) Brightness Sun altitude
Rises 09:21:56 0° 237° (WSW) 6,881 11.3 24.4°
Reaches altitude 10° 09:27:07 10° 234° (SW) 5,582 11.0 25.4°
Maximum altitude 09:42:00 53° 164° (SSE) 2,272 9.9 28.3°
Drops below altitude 10° 09:50:40 10° 90° (E) 3,370 11.9 30.0°
Sets 09:53:01 0° 85° (E) 4,058 11.9 30.5°
